Printer-friendly version

IAU Minor Planet Center

Minor Planet Center

MPEC 2004-R41 : 2004 RV10

The following Minor Planet Electronic Circular may be linked-to from your own Web pages, but must not otherwise be redistributed electronically.


Read MPEC 2004-R40 Read MPEC 2004-R42


M.P.E.C. 2004-R41                                Issued 2004 Sept.  9, 10:55 UT

     The Minor Planet Electronic Circulars contain information on unusual
         minor planets and routine data on comets.  They are published
   on behalf of Commission 20 of the International Astronomical Union by the
          Minor Planet Center, Smithsonian Astrophysical Observatory,
                          Cambridge, MA 02138, U.S.A.

                  Supported in part by the Brinson Foundation
             Prepared using the Tamkin Foundation Computer Network

                              MPC@CFA.HARVARD.EDU
          URL http://cfa-www.harvard.edu/iau/mpc.html  ISSN 1523-6714

                                   2004 RV10

Observations:
     K04R10V* C2004 09 08.12696 20 38 32.60 -04 54 19.0          19.0   ER041704
     K04R10V  C2004 09 08.13784 20 38 31.50 -04 55 20.8          19.5   ER041704
     K04R10V  C2004 09 08.14870 20 38 30.43 -04 56 22.4          19.2   ER041704
     K04R10V  C2004 09 08.17051 20 38 28.27 -04 58 26.6          19.5   ER041704
     K04R10V  C2004 09 08.17160 20 38 28.14 -04 58 32.3          19.1   ER041704
     K04R10V  C2004 09 08.18252 20 38 27.04 -04 59 34.1          19.3   ER041704
     K04R10V  C2004 09 08.19354 20 38 25.93 -05 00 35.0          19.3   ER041704
     K04R10V  C2004 09 08.20460 20 38 24.90 -05 01 38.1          19.8   ER041704
     K04R10V  C2004 09 08.21552 20 38 23.87 -05 02 39.7          19.9   ER041704
     K04R10V  C2004 09 08.85851 20 37 27.30 -06 03 18.7                 ER041246
     K04R10V  C2004 09 08.85944 20 37 27.19 -06 03 24.2                 ER041246
     K04R10V  C2004 09 08.86073 20 37 27.05 -06 03 31.8                 ER041246
     K04R10V  C2004 09 08.86156 20 37 27.05 -06 03 35.8                 ER041246
     K04R10V  C2004 09 08.86219 20 37 26.99 -06 03 40.0                 ER041246
     K04R10V  C2004 09 08.86280 20 37 26.91 -06 03 42.9                 ER041246
     K04R10V  C2004 09 08.90556 20 37 23.16 -06 07 45.6          19.6 R ER041J95
     K04R10V  C2004 09 08.91112 20 37 22.71 -06 08 16.3                 ER041J95
     K04R10V  C2004 09 08.91651 20 37 22.13 -06 08 47.5          19.0 R ER041J95
     K04R10V  C2004 09 09.18351 20 36 58.93 -06 33 55.6          19.9 R ER041734
     K04R10V  C2004 09 09.18787 20 36 58.57 -06 34 22.3          20.1 R ER041734
     K04R10V  C2004 09 09.18934 20 36 58.45 -06 34 27.5          19.1 R ER041734
     K04R10V  C2004 09 09.19227 20 36 58.21 -06 34 44.1          19.6 R ER041734
     K04R10V 5C2004 09 09.20509 20 36 57.34 -06 35 57.8          19.5 R ER041673
     K04R10V 5C2004 09 09.20833 20 36 57.06 -06 36 14.9                 ER041673
     K04R10V 5C2004 09 09.21042 20 36 56.85 -06 36 26.6                 ER041673
     K04R10V 5C2004 09 09.21273 20 36 56.65 -06 36 39.3                 ER041673

Observer details:
246 Klet Observatory-KLENOT.  Observer M. Tichy.  1.06-m KLENOT Telescope
    + CCD.
673 Table Mountain Observatory, Wrightwood.  Observer J. Young.  0.6-m
    reflector + CCD.
704 Lincoln Laboratory ETS, New Mexico.  Observers M. Blythe, F. Shelly,
    M. Bezpalko, R. Huber, L. Manguso, D. Torres, R. Kracke, M. McCleary,
    H. Stange, A. Milner.  Measurers J. Stuart, R. Sayer, J. Evans, J. Kommers.
    1.0-m f/2.15 reflector + CCD.
734 Farpoint Observatory.  Observer W. Leifer.  Measurer G. Hug.  0.4-m f/6
    Schmidt-Cassegrain + CCD.
J95 Great Shefford.  Observer P. Birtwhistle.  0.30-m f/6.3 Schmidt-Cassegrain
    + CCD.

Orbital elements:
2004 RV10
Epoch 2004 Aug. 23.0 TT = JDT 2453240.5                 MPC
M 283.36866              (2000.0)            P               Q
n   0.62387904     Peri.  273.25130     +0.19774686     -0.96393295
a   1.3564458      Node   162.02033     +0.95680365     +0.22931155
e   0.2838603      Incl.   35.24426     -0.21312661     +0.13509066
P   1.58           H   20.0           G   0.15
From 26 observations 2004 Sept. 8-9.

Ephemeris:
2004 RV10                a,e,i = 1.36, 0.28, 35                  q = 0.9714
Date    TT    R. A. (2000) Decl.     Delta      r     Elong.  Phase     V
2004 09 02    20 48.45   +04 25.6    0.365    1.334   148.3    23.4    19.5
2004 09 12    20 33.15   -10 59.2    0.354    1.291   137.8    31.6    19.6
2004 09 22    20 23.63   -25 45.3    0.376    1.247   122.6    42.7    20.0
2004 10 02    20 21.44   -37 37.7    0.421    1.204   108.7    52.0    20.4
2004 10 12    20 26.87   -46 28.6    0.476    1.161    97.5    58.5    20.8
2004 10 22    20 39.77   -53 01.0    0.533    1.119    88.9    62.7    21.1
2004 11 01    20 59.67   -57 57.2    0.584    1.081    82.2    65.4    21.3
2004 11 11    21 26.13   -61 44.4    0.626    1.046    77.1    67.2    21.5
2004 11 21    21 59.03   -64 38.1    0.656    1.017    73.3    68.5    21.5
2004 12 01    22 38.03   -66 46.2    0.670    0.994    70.9    69.6    21.6
2004 12 11    23 22.73   -68 09.2    0.668    0.979    69.6    70.6    21.6
2004 12 21    00 12.52   -68 43.1    0.650    0.972    69.6    71.6    21.5
2004 12 31    01 06.01   -68 19.1    0.615    0.974    70.8    72.5    21.4
2005 01 10    02 01.40   -66 39.7    0.567    0.984    73.3    73.2    21.3
2005 01 20    02 56.89   -63 16.0    0.507    1.003    77.3    73.1    21.1
2005 01 30    03 50.77   -57 18.9    0.441    1.029    83.0    71.8    20.8
2005 02 09    04 41.93   -47 28.2    0.377    1.061    90.7    68.4    20.4
2005 02 19    05 30.00   -32 18.7    0.331    1.097   100.3    62.4    20.0
2005 03 01    06 14.78   -12 40.4    0.320    1.137   109.2    55.4    19.8
2005 03 11    06 56.25   +06 21.0    0.356    1.179   113.1    50.8    20.0
2005 03 21    07 34.71   +20 16.0    0.430    1.222   111.7    49.2    20.4
2005 03 31    08 10.26   +28 57.7    0.529    1.266   107.9    48.7    21.0
2005 04 10    08 43.17   +33 59.8    0.641    1.310   103.5    48.1    21.4
2005 04 20    09 13.79   +36 40.2    0.760    1.352    99.1    47.2    21.8

Timothy B. Spahr             (C) Copyright 2004 MPC           M.P.E.C. 2004-R41

Read MPEC 2004-R40 Read MPEC 2004-R42


Our Web policy. Index to the CBAT/MPC/ICQ pages.


Valid HTML 4.01!